#timestamp,LO_Frequency,Hit 
1499259615.3,286046993.3,N
1499259635.2,286046993.9,N
1499259685.9,286046994.3,Y
1499259695.8,286046995.3,N
1499259715.7,286047001.0,N
1499259735.5,286047000.6,N
1499259755.3,286046999.8,N
1499259775.2,286047000.6,N
1499259795.0,286046999.7,N
1499259795.9,286046999.7,N
1499259815.8,286047000.6,N
1499259835.6,286047002.8,N
1499259855.4,286047002.4,N
1499259875.3,286047000.1,N
1499259895.1,286047002.5,N
1499259915.8,286047002.1,N
1499259935.7,286047002.3,N
1499259955.5,286047001.8,N
1499259975.4,286047001.9,N
1499259995.2,286047002.7,N
1499260015.0,286047002.6,N
1499260015.9,286047002.6,N
1499260035.8,286046999.7,N
1499260055.6,286047000.2,N
1499260075.5,286047001.1,N
1499260095.3,286047000.8,N
1499260115.1,286047000.7,N
1499260135.9,286047001.2,N
1499260155.7,286046998.4,N
1499260175.5,286046998.3,N
1499260195.4,286046998.8,N
1499260215.2,286046998.4,N
1499260235.0,286046999.4,N
1499260236.0,286046999.4,N
1499260255.8,286046999.1,N
1499260275.6,286046997.0,N
1499260295.5,286046999.2,N
1499260315.3,286046998.4,N
1499260335.1,286046999.3,N
1499260355.9,286046999.4,N
1499260375.7,286046999.3,N
1499260395.6,286046999.6,N
1499260415.4,286046997.4,N
1499260435.2,286046997.1,N
1499260455.1,286046997.4,N
1499260456.0,286046997.4,N
1499260475.8,286046997.6,N
1499260495.6,286046997.1,N
1499260515.5,286046997.1,N
1499260535.3,286046999.5,N
1499260555.2,286046997.7,N
1499260575.0,286046997.8,N
1499260575.9,286046997.8,N
1499260595.7,286046997.4,N
1499260615.6,286046997.7,N
1499260635.4,286046997.4,N
1499260655.3,286046997.4,N
1499260675.1,286046997.9,N
1499260695.8,286046997.2,N
1499260715.7,286046997.2,N
1499260735.5,286046996.9,N
1499260755.4,286046997.9,N
1499260775.2,286046997.2,N
1499260795.0,286046999.2,N
1499260796.0,286046999.2,N
1499260815.8,286046997.7,N
1499260835.6,286046997.4,N
1499260855.5,286046996.5,N
1499260875.3,286046997.0,N
1499260895.1,286046997.0,N
1499260915.9,286046996.5,N
1499260935.7,286046998.6,N
1499260955.6,286046998.9,N
1499260975.4,286046997.0,N
1499260995.2,286046999.2,N
1499261015.1,286046996.5,N
1499261016.0,286046996.5,N
1499261035.8,286046997.0,N
1499261055.6,286046999.5,N
1499261075.5,286046997.2,N
1499261095.3,286046997.5,N
1499261115.2,286046997.3,N
1499261135.9,286046997.1,N
1499261155.7,286046999.3,N
1499261175.6,286046999.0,N
1499261195.4,286046999.6,N
1499261215.2,286046999.2,N
1499261235.1,286046996.6,N
1499261236.0,286046996.6,N
1499261255.8,286046997.7,N
1499261275.7,286046999.4,N
1499261295.5,286046999.5,N
1499261315.3,286046998.3,N
1499261335.2,286046996.6,N
1499261355.0,286046999.5,N
1499261355.9,286046999.5,N
1499261375.8,286046999.4,N
1499261395.6,286046998.1,N
1499261415.4,286047000.6,N
1499261435.3,286046998.6,N
1499261455.1,286046998.9,N
1499261475.8,286046998.8,N
1499261495.7,286046998.4,N
1499261515.5,286047000.6,N
1499261535.4,286047000.8,N
1499261555.2,286047001.0,N
1499261575.0,286046998.6,N
1499261575.9,286046998.6,N
1499261595.8,286046999.1,N
1499261615.6,286046998.8,N
1499261635.5,286046996.9,N
1499261655.3,286046997.1,N
1499261675.2,286046996.5,N
1499261695.9,286046999.4,N
1499261715.7,286046998.5,N
1499261735.6,286047001.1,N
1499261755.4,286046999.0,N
1499261775.2,286046998.5,N
1499261795.1,286046998.1,N
1499261796.0,286046998.1,N
1499261815.8,286046998.2,N
1499261835.7,286046998.8,N
1499261855.5,286046999.0,N
1499261875.3,286046998.9,N
1499261895.2,286046998.3,N
1499261915.0,286046998.5,N
1499261915.9,286046998.5,N
1499261935.7,286046998.7,N
1499261955.6,286046999.5,N
1499261975.4,286046999.4,N
1499261995.3,286046999.4,N
1499262015.1,286046999.0,N
1499262016.0,286046999.0,N
1499262035.8,286046999.2,N
1499262055.7,286046998.8,N
1499262075.5,286046998.4,N
1499262095.3,286046998.3,N
1499262115.2,286046999.0,N
1499262135.0,286046999.4,N
1499262135.9,286046999.4,N
1499262155.8,286046996.6,N
1499262175.6,286046997.1,N
1499262195.4,286046996.5,N
1499262215.3,286046996.8,N
1499262235.1,286046996.8,N
1499262255.8,286046999.2,N
1499262275.7,286046999.5,N
1499262295.5,286046999.2,N
1499262315.4,286046996.5,N
1499262335.2,286046998.7,N
1499262355.0,286046999.5,N
1499262356.0,286046999.5,N
1499262375.8,286046996.6,N
1499262395.6,286046999.4,N
1499262415.5,286046998.8,N
1499262435.3,286046998.7,N
1499262455.1,286046998.9,N
1499262475.9,286046999.4,N
1499262495.7,286046999.0,N
1499262515.6,286046998.7,N
1499262535.4,286046998.3,N
1499262555.2,286046998.2,N
1499262575.1,286046999.4,N
1499262576.0,286046999.4,N
1499262595.8,286046999.4,N
1499262615.6,286046998.1,N
1499262635.5,286047000.6,N
1499262655.3,286047000.4,N
1499262675.2,286047001.0,N
1499262695.9,286046998.6,N
1499262715.7,286046999.0,N
1499262735.6,286047000.5,N
1499262755.4,286046998.1,N
1499262775.3,286046999.0,N
1499262795.1,286046999.3,N
1499262796.0,286046999.3,N
1499262815.8,286046999.2,N
1499262835.7,286046996.5,N
1499262855.5,286046999.1,N
1499262875.3,286046998.7,N
1499262895.2,286046999.6,N
1499262915.0,286046999.3,N
1499262915.9,286046999.3,N
1499262935.8,286046999.1,N
1499262955.6,286046997.0,N
1499262975.4,286046999.4,N
1499262995.3,286046999.5,N
1499263015.1,286046998.7,N
1499263035.8,286046998.4,N
1499263055.7,286046999.3,N
1499263075.5,286046998.7,N
1499263095.4,286046999.1,N
1499263115.2,286046999.1,N
1499263135.0,286046999.2,N
1499263135.9,286046999.2,N
1499263155.8,286046996.6,N
1499263175.6,286046999.1,N
1499263195.4,286046999.2,N
